,,PA_Meas_PMT16A,,PR_Meas_QMR101_102,,RH_Meas_QMH101,,SR_Meas_QMS101,,TA_Meas_QMH101,,GenWind,,GenWind,
time,status,PA,status,PR,status,RH,status,SR,status,TA,status,DirAvg,status,SpdAvg,
2013-12-26, 00:00:04,VALID,918.878,VALID,0,VALID,95.8492,VALID,0,VALID,19.7028,VALID,134,VALID,0,
2013-12-26, 00:01:04,VALID,918.861,VALID,0,VALID,95.8187,VALID,0,VALID,19.7238,VALID,152,VALID,0.109375,
2013-12-26, 00:02:04,VALID,918.882,VALID,0,VALID,95.7958,VALID,0.107441,VALID,19.7028,VALID,139,VALID,0.084375,
2013-12-26, 00:03:04,VALID,918.846,VALID,0,VALID,95.7806,VALID,0,VALID,19.6833,VALID,139,VALID,0.0148437,
2013-12-26, 00:04:04,VALID,918.871,VALID,0,VALID,95.7958,VALID,0,VALID,19.7028,VALID,147,VALID,0,
2013-12-26, 00:05:04,VALID,918.861,VALID,0,VALID,95.7882,VALID,0,VALID,19.7028,VALID,134,VALID,1.21797,
2013-12-26, 00:06:04,VALID,918.866,VALID,0,VALID,95.7806,VALID,0,VALID,19.7223,VALID,122,VALID,0.620313,
2013-12-26, 00:07:04,VALID,918.854,VALID,0,VALID,95.7425,VALID,0,VALID,19.7628,VALID,129,VALID,0.327734,
2013-12-26, 00:08:04,VALID,918.891,VALID,0,VALID,95.6891,VALID,0,VALID,19.7808,VALID,133,VALID,0.883594,
2013-12-26, 00:09:04,VALID,918.887,VALID,0,VALID,95.6129,VALID,0,VALID,19.7808,VALID,129,VALID,0.148047,
2013-12-26, 00:10:04,VALID,918.869,VALID,0,VALID,95.5443,VALID,0,VALID,19.7808,VALID,119,VALID,0.4875,
2013-12-26, 00:11:04,VALID,918.867,VALID,0,VALID,95.4985,VALID,0,VALID,19.8003,VALID,120,VALID,0,
2013-12-26, 00:12:04,VALID,918.85,VALID,0,VALID,95.4833,VALID,0,VALID,19.7823,VALID,121,VALID,0.096875,
2013-12-26, 00:13:04,VALID,918.825,VALID,0,VALID,95.4757,VALID,0,VALID,19.8018,VALID,117,VALID,0.137109,
2013-12-26, 00:14:04,VALID,918.816,VALID,0,VALID,95.5062,VALID,0,VALID,19.7613,VALID,125,VALID,0.0351563,
2013-12-26, 00:15:04,VALID,918.848,VALID,0,VALID,95.529,VALID,0.107441,VALID,19.7613,VALID,134,VALID,0.145703,
2013-12-26, 00:16:04,VALID,918.805,VALID,0,VALID,95.5214,VALID,0,VALID,19.7808,VALID,127,VALID,0.748828,
2013-12-26, 00:17:04,VALID,918.805,VALID,0,VALID,95.5062,VALID,0,VALID,19.8213,VALID,128,VALID,0.811328,
2013-12-26, 00:18:04,VALID,918.8,VALID,0,VALID,95.468,VALID,0,VALID,19.8408,VALID,117,VALID,0.130469,
2013-12-26, 00:19:04,VALID,918.8,VALID,0,VALID,95.4223,VALID,0,VALID,19.8198,VALID,133,VALID,0.127734,
2013-12-26, 00:20:04,VALID,918.78,VALID,0,VALID,95.3766,VALID,0.107441,VALID,19.8198,VALID,144,VALID,0.266016,
2013-12-26, 00:21:04,VALID,918.778,VALID,0,VALID,95.3613,VALID,0,VALID,19.8213,VALID,130,VALID,0.0929687,
2013-12-26, 00:22:04,VALID,918.798,VALID,0,VALID,95.3537,VALID,0,VALID,19.8198,VALID,154,VALID,0,
2013-12-26, 00:23:04,VALID,918.791,VALID,0,VALID,95.3613,VALID,0,VALID,19.8213,VALID,154,VALID,0,
2013-12-26, 00:24:04,VALID,918.768,VALID,0,VALID,95.3766,VALID,0,VALID,19.8003,VALID,154,VALID,0,
2013-12-26, 00:25:04,VALID,918.778,VALID,0,VALID,95.3537,VALID,0,VALID,19.8003,VALID,132,VALID,0.0148437,
2013-12-26, 00:26:04,VALID,918.753,VALID,0,VALID,95.3461,VALID,0.107441,VALID,19.8393,VALID,149,VALID,0,
2013-12-26, 00:27:04,VALID,918.762,VALID,0,VALID,95.3613,VALID,0,VALID,19.8198,VALID,145,VALID,0,
2013-12-26, 00:28:04,VALID,918.747,VALID,0,VALID,95.3232,VALID,0,VALID,19.8603,VALID,145,VALID,0,
2013-12-26, 00:29:04,VALID,918.769,VALID,0,VALID,95.3232,VALID,0,VALID,19.8393,VALID,145,VALID,0,
2013-12-26, 00:30:04,VALID,918.752,VALID,0,VALID,95.3003,VALID,0,VALID,19.8603,VALID,151,VALID,0,
2013-12-26, 00:31:04,VALID,918.74,VALID,0,VALID,95.2927,VALID,0,VALID,19.8393,VALID,154,VALID,0,
2013-12-26, 00:32:04,VALID,918.722,VALID,0,VALID,95.3537,VALID,0,VALID,19.8588,VALID,154,VALID,0,
2013-12-26, 00:33:04,VALID,918.704,VALID,0,VALID,95.3537,VALID,0,VALID,19.8393,VALID,154,VALID,0,
2013-12-26, 00:34:04,VALID,918.692,VALID,0,VALID,95.3766,VALID,0.107441,VALID,19.7613,VALID,162,VALID,0,
2013-12-26, 00:35:04,VALID,918.699,VALID,0,VALID,95.4528,VALID,0,VALID,19.7223,VALID,162,VALID,0,
2013-12-26, 00:36:04,VALID,918.718,VALID,0,VALID,95.5519,VALID,0.107441,VALID,19.7028,VALID,162,VALID,0,
2013-12-26, 00:37:04,VALID,918.679,VALID,0,VALID,95.6586,VALID,0,VALID,19.7043,VALID,162,VALID,0,
2013-12-26, 00:38:04,VALID,918.706,VALID,0,VALID,95.7501,VALID,0,VALID,19.6653,VALID,162,VALID,0,
2013-12-26, 00:39:04,VALID,918.711,VALID,0,VALID,95.8416,VALID,0,VALID,19.6443,VALID,162,VALID,0,
2013-12-26, 00:40:04,VALID,918.709,VALID,0,VALID,95.9178,VALID,0,VALID,19.6638,VALID,162,VALID,0,
2013-12-26, 00:41:04,VALID,918.68,VALID,0,VALID,96.0093,VALID,0,VALID,19.6638,VALID,162,VALID,0,
2013-12-26, 00:42:04,VALID,918.695,VALID,0,VALID,96.0398,VALID,0,VALID,19.6638,VALID,162,VALID,0,
2013-12-26, 00:43:04,VALID,918.692,VALID,0,VALID,96.1236,VALID,0,VALID,19.6638,VALID,162,VALID,0,
2013-12-26, 00:44:04,VALID,918.656,VALID,0,VALID,96.1923,VALID,0,VALID,19.6638,VALID,162,VALID,0,
2013-12-26, 00:45:04,VALID,918.658,VALID,0,VALID,96.1999,VALID,0,VALID,19.6443,VALID,162,VALID,0,
2013-12-26, 00:46:04,VALID,918.662,VALID,0,VALID,96.2304,VALID,0,VALID,19.6038,VALID,162,VALID,0,
2013-12-26, 00:47:04,VALID,918.647,VALID,0,VALID,96.2533,VALID,0,VALID,19.6248,VALID,162,VALID,0,
2013-12-26, 00:48:04,VALID,918.666,VALID,0,VALID,96.299,VALID,0,VALID,19.6053,VALID,162,VALID,0,
2013-12-26, 00:49:04,VALID,918.676,VALID,0,VALID,96.3295,VALID,0,VALID,19.6263,VALID,162,VALID,0,
2013-12-26, 00:50:04,VALID,918.707,VALID,0,VALID,96.36,VALID,0,VALID,19.5858,VALID,162,VALID,0,
2013-12-26, 00:51:04,VALID,918.674,VALID,0,VALID,96.3829,VALID,0,VALID,19.5858,VALID,162,VALID,0,
2013-12-26, 00:52:04,VALID,918.676,VALID,0,VALID,96.3905,VALID,0,VALID,19.5858,VALID,162,VALID,0,
2013-12-26, 00:53:04,VALID,918.686,VALID,0,VALID,96.4133,VALID,0,VALID,19.5858,VALID,162,VALID,0,
2013-12-26, 00:54:04,VALID,918.678,VALID,0,VALID,96.421,VALID,0,VALID,19.6053,VALID,162,VALID,0,
2013-12-26, 00:55:04,VALID,918.678,VALID,0,VALID,96.4591,VALID,0,VALID,19.6263,VALID,162,VALID,0,
2013-12-26, 00:56:04,VALID,918.662,VALID,0,VALID,96.4438,VALID,0,VALID,19.5858,VALID,162,VALID,0,
2013-12-26, 00:57:04,VALID,918.674,VALID,0,VALID,96.4515,VALID,0,VALID,19.6263,VALID,162,VALID,0,
2013-12-26, 00:58:04,VALID,918.614,VALID,0,VALID,96.4591,VALID,0,VALID,19.6263,VALID,162,VALID,0,
2013-12-26, 00:59:04,VALID,918.617,VALID,0,VALID,96.4591,VALID,0,VALID,19.6263,VALID,162,VALID,0,
2013-12-26, 01:00:04,VALID,918.576,VALID,0,VALID,96.4819,VALID,0,VALID,19.5858,VALID,162,VALID,0,
2013-12-26, 01:01:04,VALID,918.568,VALID,0,VALID,96.4591,VALID,0,VALID,19.5663,VALID,162,VALID,0,
2013-12-26, 01:02:04,VALID,918.57,VALID,0,VALID,96.4819,VALID,0,VALID,19.5663,VALID,162,VALID,0,
2013-12-26, 01:03:04,VALID,918.561,VALID,0,VALID,96.4667,VALID,0,VALID,19.5468,VALID,162,VALID,0,
2013-12-26, 01:04:04,VALID,918.537,VALID,0,VALID,96.4819,VALID,0,VALID,19.5678,VALID,162,VALID,0,
2013-12-26, 01:05:04,VALID,918.542,VALID,0,VALID,96.4896,VALID,0,VALID,19.5468,VALID,162,VALID,0,
2013-12-26, 01:06:04,VALID,918.557,VALID,0,VALID,96.4819,VALID,0,VALID,19.5273,VALID,162,VALID,0,
2013-12-26, 01:07:04,VALID,918.54,VALID,0,VALID,96.4819,VALID,0,VALID,19.5678,VALID,162,VALID,0,
2013-12-26, 01:08:04,VALID,918.532,VALID,0,VALID,96.4743,VALID,0,VALID,19.5468,VALID,162,VALID,0,
2013-12-26, 01:09:04,VALID,918.528,VALID,0,VALID,96.4819,VALID,0,VALID,19.5483,VALID,162,VALID,0,
2013-12-26, 01:10:04,VALID,918.555,VALID,0,VALID,96.4972,VALID,0,VALID,19.5483,VALID,162,VALID,0,
2013-12-26, 01:11:04,VALID,918.54,VALID,0,VALID,96.4667,VALID,0,VALID,19.5078,VALID,161,VALID,0,
2013-12-26, 01:12:04,VALID,918.52,VALID,0,VALID,96.4591,VALID,0,VALID,19.5078,VALID,161,VALID,0,
2013-12-26, 01:13:04,VALID,918.502,VALID,0,VALID,96.4591,VALID,0,VALID,19.5078,VALID,159,VALID,0,
2013-12-26, 01:14:04,VALID,918.469,VALID,0,VALID,96.4286,VALID,0,VALID,19.5093,VALID,160,VALID,0,
2013-12-26, 01:15:04,VALID,918.444,VALID,0,VALID,96.4286,VALID,0,VALID,19.4898,VALID,160,VALID,0,
2013-12-26, 01:16:04,VALID,918.449,VALID,0,VALID,96.3981,VALID,0,VALID,19.4703,VALID,160,VALID,0,
2013-12-26, 01:17:04,VALID,918.425,VALID,0,VALID,96.3829,VALID,0,VALID,19.4508,VALID,159,VALID,0,
2013-12-26, 01:18:04,VALID,918.418,VALID,0,VALID,96.36,VALID,0,VALID,19.4313,VALID,158,VALID,0,
2013-12-26, 01:19:04,VALID,918.433,VALID,0,VALID,96.3676,VALID,0,VALID,19.4118,VALID,158,VALID,0,
2013-12-26, 01:20:04,VALID,918.412,VALID,0,VALID,96.3905,VALID,0,VALID,19.3713,VALID,158,VALID,0,
2013-12-26, 01:21:04,VALID,918.411,VALID,0,VALID,96.3752,VALID,0,VALID,19.3728,VALID,158,VALID,0,
2013-12-26, 01:22:04,VALID,918.378,VALID,0,VALID,96.36,VALID,0,VALID,19.3518,VALID,155,VALID,0,
2013-12-26, 01:23:04,VALID,918.379,VALID,0,VALID,96.3981,VALID,0,VALID,19.3518,VALID,139,VALID,0,
2013-12-26, 01:24:04,VALID,918.315,VALID,0,VALID,96.3981,VALID,0,VALID,19.3518,VALID,139,VALID,0,
2013-12-26, 01:25:04,VALID,918.336,VALID,0,VALID,96.3981,VALID,0,VALID,19.3533,VALID,139,VALID,0,
2013-12-26, 01:26:04,VALID,918.288,VALID,0,VALID,96.4057,VALID,0,VALID,19.3728,VALID,139,VALID,0,
2013-12-26, 01:27:04,VALID,918.274,VALID,0,VALID,96.3905,VALID,0,VALID,19.3518,VALID,139,VALID,0,
2013-12-26, 01:28:04,VALID,918.261,VALID,0,VALID,96.4057,VALID,0,VALID,19.3728,VALID,139,VALID,0,
2013-12-26, 01:29:04,VALID,918.223,VALID,0,VALID,96.4133,VALID,0,VALID,19.3713,VALID,135,VALID,0,
2013-12-26, 01:30:04,VALID,918.208,VALID,0,VALID,96.3981,VALID,0,VALID,19.4118,VALID,134,VALID,0,
2013-12-26, 01:31:04,VALID,918.18,VALID,0,VALID,96.3752,VALID,0,VALID,19.4118,VALID,135,VALID,0,
2013-12-26, 01:32:04,VALID,918.122,VALID,0,VALID,96.3676,VALID,0,VALID,19.4118,VALID,140,VALID,0,
2013-12-26, 01:33:04,VALID,918.113,VALID,0,VALID,96.3524,VALID,0,VALID,19.4118,VALID,140,VALID,0,
2013-12-26, 01:34:04,VALID,918.077,VALID,0,VALID,96.3295,VALID,0,VALID,19.4118,VALID,138,VALID,0,
2013-12-26, 01:35:04,VALID,918.075,VALID,0,VALID,96.3219,VALID,0,VALID,19.4103,VALID,138,VALID,0,
2013-12-26, 01:36:04,VALID,918.082,VALID,0,VALID,96.3142,VALID,0,VALID,19.4118,VALID,138,VALID,0,
2013-12-26, 01:37:04,VALID,918.065,VALID,0,VALID,96.2837,VALID,0,VALID,19.3713,VALID,138,VALID,0,
2013-12-26, 01:38:04,VALID,918.043,VALID,0,VALID,96.2914,VALID,0,VALID,19.3728,VALID,138,VALID,0,
2013-12-26, 01:39:04,VALID,918.054,VALID,0,VALID,96.2761,VALID,0,VALID,19.3518,VALID,138,VALID,0,
2013-12-26, 01:40:04,VALID,918.04,VALID,0,VALID,96.2761,VALID,0,VALID,19.3728,VALID,129,VALID,0,
2013-12-26, 01:41:04,VALID,918.011,VALID,0,VALID,96.2761,VALID,0,VALID,19.3923,VALID,127,VALID,0,
2013-12-26, 01:42:04,VALID,918.011,VALID,0,VALID,96.2837,VALID,0,VALID,19.4313,VALID,127,VALID,0,
2013-12-26, 01:43:04,VALID,918.014,VALID,0,VALID,96.2761,VALID,0,VALID,19.4508,VALID,127,VALID,0,
2013-12-26, 01:44:04,VALID,917.992,VALID,0,VALID,96.2533,VALID,0,VALID,19.4313,VALID,127,VALID,0,
2013-12-26, 01:45:04,VALID,917.938,VALID,0,VALID,96.2304,VALID,0,VALID,19.4313,VALID,111,VALID,0,
2013-12-26, 01:46:04,VALID,917.923,VALID,0,VALID,96.1923,VALID,0,VALID,19.4313,VALID,124,VALID,0,
2013-12-26, 01:47:04,VALID,917.922,VALID,0,VALID,96.1313,VALID,0,VALID,19.4103,VALID,124,VALID,0,
2013-12-26, 01:48:04,VALID,917.893,VALID,0,VALID,96.1008,VALID,0,VALID,19.4298,VALID,124,VALID,0.0347656,
2013-12-26, 01:49:04,VALID,917.884,VALID,0,VALID,96.0627,VALID,0,VALID,19.4688,VALID,139,VALID,0,
2013-12-26, 01:50:04,VALID,917.838,VALID,0,VALID,95.9788,VALID,0,VALID,19.4688,VALID,145,VALID,0.0347656,
2013-12-26, 01:51:04,VALID,917.855,VALID,0,VALID,95.9178,VALID,0,VALID,19.5288,VALID,138,VALID,0.31875,
2013-12-26, 01:52:04,VALID,917.831,VALID,0,VALID,95.8187,VALID,0,VALID,19.5678,VALID,142,VALID,0,
2013-12-26, 01:53:04,VALID,917.815,VALID,0,VALID,95.7577,VALID,0,VALID,19.5678,VALID,141,VALID,0.291016,
2013-12-26, 01:54:04,VALID,917.803,VALID,0,VALID,95.6586,VALID,0,VALID,19.6263,VALID,139,VALID,0.4,
2013-12-26, 01:55:04,VALID,917.813,VALID,0,VALID,95.5443,VALID,0,VALID,19.6263,VALID,138,VALID,0,
2013-12-26, 01:56:04,VALID,917.787,VALID,0,VALID,95.468,VALID,0,VALID,19.6458,VALID,140,VALID,0,
2013-12-26, 01:57:04,VALID,917.789,VALID,0,VALID,95.3689,VALID,0,VALID,19.6263,VALID,152,VALID,0,
2013-12-26, 01:58:04,VALID,917.749,VALID,0,VALID,95.3232,VALID,0,VALID,19.5873,VALID,152,VALID,0,
2013-12-26, 01:59:04,VALID,917.758,VALID,0,VALID,95.3156,VALID,0,VALID,19.5678,VALID,152,VALID,0,
2013-12-26, 02:00:04,VALID,917.76,VALID,0,VALID,95.3232,VALID,0,VALID,19.5483,VALID,152,VALID,0,
2013-12-26, 02:01:04,VALID,917.713,VALID,0,VALID,95.3079,VALID,0,VALID,19.4883,VALID,152,VALID,0,
2013-12-26, 02:02:04,VALID,917.706,VALID,0,VALID,95.3079,VALID,0,VALID,19.4898,VALID,152,VALID,0,
2013-12-26, 02:03:04,VALID,917.69,VALID,0,VALID,95.3384,VALID,0,VALID,19.4508,VALID,152,VALID,0,
2013-12-26, 02:04:04,VALID,917.702,VALID,0,VALID,95.3994,VALID,0,VALID,19.4313,VALID,152,VALID,0,
2013-12-26, 02:05:04,VALID,917.642,VALID,0,VALID,95.4604,VALID,0,VALID,19.4313,VALID,151,VALID,0,
2013-12-26, 02:06:04,VALID,917.654,VALID,0,VALID,95.4985,VALID,0,VALID,19.4103,VALID,152,VALID,0,
2013-12-26, 02:07:04,VALID,917.696,VALID,0,VALID,95.529,VALID,0,VALID,19.3908,VALID,151,VALID,0,
2013-12-26, 02:08:04,VALID,917.656,VALID,0,VALID,95.5443,VALID,0,VALID,19.3728,VALID,152,VALID,0,
2013-12-26, 02:09:04,VALID,917.688,VALID,0,VALID,95.5214,VALID,0,VALID,19.3533,VALID,151,VALID,0,
2013-12-26, 02:10:04,VALID,917.665,VALID,0,VALID,95.5519,VALID,0,VALID,19.3128,VALID,151,VALID,0,
2013-12-26, 02:11:04,VALID,917.661,VALID,0,VALID,95.5976,VALID,0,VALID,19.2948,VALID,150,VALID,0,
2013-12-26, 02:12:04,VALID,917.652,VALID,0,VALID,95.651,VALID,0,VALID,19.2948,VALID,145,VALID,0,
2013-12-26, 02:13:04,VALID,917.67,VALID,0,VALID,95.712,VALID,0,VALID,19.2948,VALID,130,VALID,0,
2013-12-26, 02:14:04,VALID,917.63,VALID,0,VALID,95.7044,VALID,0,VALID,19.2558,VALID,130,VALID,0,
2013-12-26, 02:15:04,VALID,917.616,VALID,0,VALID,95.7272,VALID,0,VALID,19.2168,VALID,130,VALID,0,
2013-12-26, 02:16:04,VALID,917.592,VALID,0,VALID,95.7349,VALID,0,VALID,19.1973,VALID,130,VALID,0,
2013-12-26, 02:17:04,VALID,917.575,VALID,0,VALID,95.8035,VALID,0,VALID,19.1973,VALID,130,VALID,0,
2013-12-26, 02:18:04,VALID,917.571,VALID,0,VALID,95.895,VALID,0,VALID,19.1778,VALID,130,VALID,0,
2013-12-26, 02:19:04,VALID,917.505,VALID,0,VALID,95.9407,VALID,0,VALID,19.1373,VALID,130,VALID,0,
2013-12-26, 02:20:04,VALID,917.509,VALID,0,VALID,95.9712,VALID,0,VALID,19.1373,VALID,130,VALID,0,
2013-12-26, 02:21:04,VALID,917.496,VALID,0,VALID,96.0474,VALID,0,VALID,19.1373,VALID,113,VALID,0,
2013-12-26, 02:22:04,VALID,917.461,VALID,0,VALID,96.0779,VALID,0,VALID,19.1778,VALID,116,VALID,0,
2013-12-26, 02:23:04,VALID,917.46,VALID,0,VALID,96.1008,VALID,0,VALID,19.1373,VALID,121,VALID,0,
2013-12-26, 02:24:04,VALID,917.448,VALID,0,VALID,96.1465,VALID,0,VALID,19.1388,VALID,121,VALID,0.133203,
2013-12-26, 02:25:04,VALID,917.448,VALID,0,VALID,96.1694,VALID,0,VALID,19.1583,VALID,121,VALID,0.009375,
2013-12-26, 02:26:04,VALID,917.437,VALID,0,VALID,96.1999,VALID,0,VALID,19.1778,VALID,122,VALID,0,
2013-12-26, 02:27:04,VALID,917.425,VALID,0,VALID,96.2304,VALID,0,VALID,19.1583,VALID,122,VALID,0,
2013-12-26, 02:28:04,VALID,917.369,VALID,0,VALID,96.2685,VALID,0,VALID,19.1583,VALID,122,VALID,0,
2013-12-26, 02:29:04,VALID,917.397,VALID,0,VALID,96.2685,VALID,0,VALID,19.1388,VALID,122,VALID,0,
2013-12-26, 02:30:04,VALID,917.33,VALID,0,VALID,96.2761,VALID,0,VALID,19.0788,VALID,122,VALID,0,
2013-12-26, 02:31:04,VALID,917.327,VALID,0,VALID,96.2837,VALID,0,VALID,19.1193,VALID,122,VALID,0,
2013-12-26, 02:32:04,VALID,917.304,VALID,0,VALID,96.3142,VALID,0,VALID,19.0998,VALID,122,VALID,0,
2013-12-26, 02:33:04,VALID,917.299,VALID,0,VALID,96.3219,VALID,0,VALID,19.0803,VALID,122,VALID,0,
2013-12-26, 02:34:04,VALID,917.293,VALID,0,VALID,96.3524,VALID,0,VALID,19.0203,VALID,122,VALID,0,
2013-12-26, 02:35:04,VALID,917.288,VALID,0,VALID,96.3676,VALID,0,VALID,19.0608,VALID,130,VALID,0,
2013-12-26, 02:36:04,VALID,917.296,VALID,0,VALID,96.4057,VALID,0,VALID,19.0803,VALID,130,VALID,0,
2013-12-26, 02:37:04,VALID,917.255,VALID,0,VALID,96.4286,VALID,0,VALID,19.0608,VALID,130,VALID,0,
2013-12-26, 02:38:04,VALID,917.284,VALID,0,VALID,96.4515,VALID,0,VALID,19.0593,VALID,130,VALID,0,
2013-12-26, 02:39:04,VALID,917.285,VALID,0,VALID,96.4515,VALID,0,VALID,19.0998,VALID,110,VALID,0,
2013-12-26, 02:40:04,VALID,917.23,VALID,0,VALID,96.4515,VALID,0,VALID,19.1193,VALID,127,VALID,0.0773437,
2013-12-26, 02:41:04,VALID,917.196,VALID,0,VALID,96.4591,VALID,0,VALID,19.1178,VALID,125,VALID,0,
2013-12-26, 02:42:04,VALID,917.2,VALID,0,VALID,96.4591,VALID,0,VALID,19.1388,VALID,125,VALID,0.0457031,
2013-12-26, 02:43:04,VALID,917.175,VALID,0,VALID,96.4591,VALID,0,VALID,19.1388,VALID,127,VALID,0.00429688,
2013-12-26, 02:44:04,VALID,917.169,VALID,0,VALID,96.4591,VALID,0,VALID,19.1583,VALID,120,VALID,0,
2013-12-26, 02:45:04,VALID,917.132,VALID,0,VALID,96.4515,VALID,0,VALID,19.1778,VALID,136,VALID,0.635156,
2013-12-26, 02:46:04,VALID,917.126,VALID,0,VALID,96.4438,VALID,0,VALID,19.2168,VALID,136,VALID,0.0675781,
2013-12-26, 02:47:04,VALID,917.091,VALID,0,VALID,96.4438,VALID,0,VALID,19.2558,VALID,134,VALID,0.376953,
2013-12-26, 02:48:04,VALID,917.087,VALID,0,VALID,96.4438,VALID,0,VALID,19.2753,VALID,124,VALID,0.2,
2013-12-26, 02:49:04,VALID,917.044,VALID,0,VALID,96.3981,VALID,0,VALID,19.2753,VALID,130,VALID,0.183984,
2013-12-26, 02:50:04,VALID,917.039,VALID,0,VALID,96.3905,VALID,0,VALID,19.2933,VALID,136,VALID,0.418359,
2013-12-26, 02:51:04,VALID,916.99,VALID,0,VALID,96.36,VALID,0,VALID,19.3338,VALID,134,VALID,0.115234,
2013-12-26, 02:52:04,VALID,916.997,VALID,0,VALID,96.3066,VALID,0,VALID,19.3338,VALID,140,VALID,0,
2013-12-26, 02:53:04,VALID,916.96,VALID,0,VALID,96.2914,VALID,0,VALID,19.3323,VALID,142,VALID,0.434766,
2013-12-26, 02:54:04,VALID,916.94,VALID,0,VALID,96.2533,VALID,0,VALID,19.3728,VALID,139,VALID,0.286328,
2013-12-26, 02:55:04,VALID,916.967,VALID,0,VALID,96.1923,VALID,0,VALID,19.3518,VALID,132,VALID,0,
2013-12-26, 02:56:04,VALID,916.916,VALID,0,VALID,96.1313,VALID,0,VALID,19.3518,VALID,142,VALID,0.107813,
2013-12-26, 02:57:04,VALID,916.911,VALID,0,VALID,96.1084,VALID,0,VALID,19.3728,VALID,127,VALID,0,
2013-12-26, 02:58:04,VALID,916.918,VALID,0,VALID,96.0398,VALID,0,VALID,19.3728,VALID,126,VALID,0.514844,
2013-12-26, 02:59:04,VALID,916.887,VALID,0,VALID,95.9788,VALID,0,VALID,19.3533,VALID,129,VALID,0.00585938,
2013-12-26, 03:00:04,VALID,916.874,VALID,0,VALID,95.9331,VALID,0,VALID,19.3338,VALID,130,VALID,0.0175781,
2013-12-26, 03:01:04,VALID,916.885,VALID,0,VALID,95.9102,VALID,0,VALID,19.3143,VALID,144,VALID,0,
2013-12-26, 03:02:04,VALID,916.856,VALID,0,VALID,95.8797,VALID,0,VALID,19.2948,VALID,142,VALID,0.0660156,
2013-12-26, 03:03:04,VALID,916.845,VALID,0,VALID,95.8645,VALID,0,VALID,19.2948,VALID,161,VALID,0,
2013-12-26, 03:04:04,VALID,916.823,VALID,0,VALID,95.8645,VALID,0,VALID,19.2558,VALID,151,VALID,0,
2013-12-26, 03:05:04,VALID,916.86,VALID,0,VALID,95.8873,VALID,0,VALID,19.2738,VALID,161,VALID,0.4375,
2013-12-26, 03:06:04,VALID,916.831,VALID,0,VALID,95.9178,VALID,0,VALID,19.2753,VALID,158,VALID,0,
2013-12-26, 03:07:04,VALID,916.817,VALID,0,VALID,95.9254,VALID,0,VALID,19.2753,VALID,166,VALID,0.0164062,
2013-12-26, 03:08:04,VALID,916.803,VALID,0,VALID,95.9636,VALID,0,VALID,19.2363,VALID,163,VALID,0,
2013-12-26, 03:09:04,VALID,916.837,VALID,0,VALID,95.9636,VALID,0,VALID,19.2168,VALID,143,VALID,0,
2013-12-26, 03:10:04,VALID,916.812,VALID,0,VALID,95.9941,VALID,0,VALID,19.1778,VALID,164,VALID,0.00585938,
2013-12-26, 03:11:04,VALID,916.838,VALID,0,VALID,96.0245,VALID,0,VALID,19.1373,VALID,154,VALID,0.025,
2013-12-26, 03:12:04,VALID,916.843,VALID,0,VALID,96.0779,VALID,0,VALID,19.1193,VALID,147,VALID,0,
2013-12-26, 03:13:04,VALID,916.822,VALID,0,VALID,96.0932,VALID,0,VALID,19.0803,VALID,138,VALID,0.191016,
2013-12-26, 03:14:04,VALID,916.859,VALID,0,VALID,96.1694,VALID,0,VALID,19.0608,VALID,136,VALID,0.0371094,
2013-12-26, 03:15:04,VALID,916.859,VALID,0,VALID,96.2228,VALID,0,VALID,19.0398,VALID,137,VALID,0.242188,
2013-12-26, 03:16:04,VALID,916.865,VALID,0,VALID,96.2685,VALID,0,VALID,19.0608,VALID,144,VALID,0,
2013-12-26, 03:17:04,VALID,916.863,VALID,0,VALID,96.3066,VALID,0,VALID,19.0398,VALID,140,VALID,0,
2013-12-26, 03:18:04,VALID,916.851,VALID,0,VALID,96.3676,VALID,0,VALID,19.0413,VALID,134,VALID,0,
2013-12-26, 03:19:04,VALID,916.847,VALID,0,VALID,96.3752,VALID,0,VALID,19.0413,VALID,123,VALID,0.232422,
2013-12-26, 03:20:04,VALID,916.848,VALID,0,VALID,96.3829,VALID,0,VALID,19.0413,VALID,125,VALID,0,
2013-12-26, 03:21:04,VALID,916.842,VALID,0,VALID,96.421,VALID,0,VALID,19.0608,VALID,144,VALID,0.285547,
2013-12-26, 03:22:04,VALID,916.805,VALID,0,VALID,96.4286,VALID,0,VALID,19.0593,VALID,144,VALID,0.614062,
2013-12-26, 03:23:04,VALID,916.784,VALID,0,VALID,96.4133,VALID,0.107441,VALID,19.0788,VALID,151,VALID,0.472656,
2013-12-26, 03:24:04,VALID,916.817,VALID,0,VALID,96.4286,VALID,0,VALID,19.1193,VALID,142,VALID,0.888672,
2013-12-26, 03:25:04,VALID,916.788,VALID,0,VALID,96.4133,VALID,0,VALID,19.1388,VALID,130,VALID,0.187891,
2013-12-26, 03:26:04,VALID,916.791,VALID,0,VALID,96.3905,VALID,0,VALID,19.1388,VALID,133,VALID,0,
2013-12-26, 03:27:04,VALID,916.773,VALID,0,VALID,96.3447,VALID,0,VALID,19.1388,VALID,130,VALID,0.386719,
2013-12-26, 03:28:04,VALID,916.756,VALID,0,VALID,96.299,VALID,0,VALID,19.1388,VALID,128,VALID,0,
2013-12-26, 03:29:04,VALID,916.783,VALID,0,VALID,96.2685,VALID,0,VALID,19.1388,VALID,133,VALID,0,
2013-12-26, 03:30:04,VALID,916.782,VALID,0,VALID,96.2304,VALID,0,VALID,19.0983,VALID,141,VALID,0,
2013-12-26, 03:31:04,VALID,916.765,VALID,0,VALID,96.1541,VALID,0,VALID,19.0998,VALID,141,VALID,0,
2013-12-26, 03:32:04,VALID,916.749,VALID,0,VALID,96.177,VALID,0,VALID,19.0998,VALID,141,VALID,0.123828,
2013-12-26, 03:33:04,VALID,916.765,VALID,0,VALID,96.1618,VALID,0,VALID,19.1193,VALID,140,VALID,0.267969,
2013-12-26, 03:34:04,VALID,916.767,VALID,0,VALID,96.1541,VALID,0,VALID,19.1193,VALID,137,VALID,0,
2013-12-26, 03:35:04,VALID,916.772,VALID,0,VALID,96.0932,VALID,0,VALID,19.0998,VALID,119,VALID,0,
2013-12-26, 03:36:04,VALID,916.766,VALID,0,VALID,96.0627,VALID,0,VALID,19.0998,VALID,119,VALID,0,
2013-12-26, 03:37:04,VALID,916.788,VALID,0,VALID,96.0627,VALID,0,VALID,19.0803,VALID,125,VALID,0,
2013-12-26, 03:38:04,VALID,916.759,VALID,0,VALID,96.055,VALID,0,VALID,19.0608,VALID,119,VALID,0,
2013-12-26, 03:39:04,VALID,916.748,VALID,0,VALID,96.055,VALID,0,VALID,19.0608,VALID,121,VALID,0,
2013-12-26, 03:40:04,VALID,916.759,VALID,0,VALID,96.0169,VALID,0,VALID,19.0398,VALID,114,VALID,0,
2013-12-26, 03:41:04,VALID,916.767,VALID,0,VALID,96.0398,VALID,0,VALID,19.0398,VALID,114,VALID,0,
2013-12-26, 03:42:04,VALID,916.734,VALID,0,VALID,96.0627,VALID,0,VALID,19.0803,VALID,123,VALID,0,
2013-12-26, 03:43:04,VALID,916.755,VALID,0,VALID,96.0245,VALID,0,VALID,19.0608,VALID,120,VALID,0,
2013-12-26, 03:44:04,VALID,916.773,VALID,0,VALID,96.0017,VALID,0,VALID,19.0803,VALID,120,VALID,0,
2013-12-26, 03:45:04,VALID,916.771,VALID,0,VALID,96.0169,VALID,0,VALID,19.0593,VALID,120,VALID,0,
2013-12-26, 03:46:04,VALID,916.743,VALID,0,VALID,96.0017,VALID,0,VALID,19.1193,VALID,127,VALID,0.115234,
2013-12-26, 03:47:04,VALID,916.742,VALID,0,VALID,95.9712,VALID,0,VALID,19.1388,VALID,127,VALID,0,
2013-12-26, 03:48:04,VALID,916.712,VALID,0,VALID,95.9559,VALID,0,VALID,19.1583,VALID,127,VALID,0,
2013-12-26, 03:49:04,VALID,916.706,VALID,0,VALID,95.9407,VALID,0,VALID,19.1778,VALID,127,VALID,0,
2013-12-26, 03:50:04,VALID,916.708,VALID,0,VALID,95.8797,VALID,0,VALID,19.1973,VALID,127,VALID,0,
2013-12-26, 03:51:04,VALID,916.737,VALID,0,VALID,95.8416,VALID,0,VALID,19.2168,VALID,97,VALID,0,
2013-12-26, 03:52:04,VALID,916.739,VALID,0,VALID,95.7501,VALID,0,VALID,19.1973,VALID,98,VALID,0,
2013-12-26, 03:53:04,VALID,916.725,VALID,0,VALID,95.7272,VALID,0,VALID,19.2363,VALID,99,VALID,0,
2013-12-26, 03:54:04,VALID,916.761,VALID,0,VALID,95.712,VALID,0,VALID,19.2558,VALID,110,VALID,0,
2013-12-26, 03:55:04,VALID,916.74,VALID,0,VALID,95.6434,VALID,0,VALID,19.2753,VALID,111,VALID,0,